Location: Miles
(41.4492°N, 81.6087°W)
Time: 08:52:10
(UTC+00:00)

Transit 2A - Pass Details

Date: 15 September 2024
Orbit: 590 x 960 km, 66.7° (Epoch: 09 October)

Event Time Altitude Azimuth Distance (km) Brightness Sun altitude
Rises 09:57:15 0° 321° (NW) 3,616 9.3 -13.7°
Reaches altitude 10° 10:00:08 10° 311° (NW) 2,635 8.5 -13.2°
Maximum altitude 10:05:24 30° 253° (WSW) 1,525 7.0 -12.3°
Drops below altitude 10° 10:10:17 10° 193° (SSW) 2,441 8.3 -11.4°
Sets 10:12:53 0° 183° (S) 3,309 9.1 -10.9°
